Ravenna, OH

3:35 PM EDT on August 17, 2017 (GMT -0400)
Ravenna

Weather History for KPOV - December, 2012

Change the Weather History Date:

Wednesday, December 19, 2012

  Actual Average (KCAK) Record (KCAK)
Temperature  
Mean Temperature 36 °F -  
Max Temperature 40 °F 37 °F 58 °F (1939)
Min Temperature 31 °F 23 °F -2 °F (1963)
Degree Days  
Heating Degree Days 30    
Moisture  
Dew Point 35 °F    
Average Humidity 96    
Maximum Humidity 100    
Minimum Humidity 81    
Precipitation  
Precipitation 0.11 in - - ()
Sea Level Pressure  
Sea Level Pressure 29.97 in    
Wind  
Wind Speed 1 mph (West)    
Max Wind Speed 9 mph    
Max Gust Speed -    
Visibility 5 miles    
Events Rain    
Averages and records for this station are not official NWS values.
T = Trace of Precipitation, MM = Missing Value Source: NWS Daily Summary

Daily Weather History Graph

Daily Weather History Graph

Search for Another Location

Airport or City:

Trip Planner

Search our weather history database for the weather conditions in past years. The results will help you decide how hot, cold, wet, or windy it might be!

Date:

Astronomy

Dec. 19, 2012 Rise Set
Actual Time 7:46 AM EST 4:58 PM EST
Civil Twilight 7:15 AM EST 5:29 PM EST
Nautical Twilight 6:40 AM EST 6:04 PM EST
Astronomical Twilight 6:06 AM EST 6:38 PM EST
Moon 11:50 AM EST (12/19) No Moon Set
Length of Visible Light 10h 14m
Length of Day
9h 12m
Waxing Crescent, 45% of the Moon is Illuminated
Dec 19
Waxing Crescent
Dec 20
First Quarter
Dec 28
Full
Jan 4
Last Quarter
Jan 11
New

Hourly Weather History & Observations

Time (EST) Temp. Windchill Dew Point Humidity Pressure Visibility Wind Dir Wind Speed Gust Speed Precip Events Conditions
12:16 AM 36.7 °F - 32.4 °F 84% 29.74 in 10.0 mi Calm Calm - N/A Rain Light Rain
12:35 AM 36.5 °F - 33.3 °F 88% 29.74 in 10.0 mi Calm Calm - N/A Rain Light Rain
12:56 AM 36.5 °F - 34.3 °F 92% 29.73 in 10.0 mi Calm Calm - 0.01 in Rain Light Rain
1:16 AM 35.8 °F - 36.0 °F 100% 29.73 in 7.0 mi Calm Calm - 0.01 in Rain Rain
1:35 AM 34.9 °F - 35.1 °F 100% 29.75 in 5.0 mi Calm Calm - 0.04 in Rain Rain
1:56 AM 34.0 °F - 34.2 °F 100% 29.75 in 4.0 mi Calm Calm - 0.06 in Rain Rain
2:15 AM 33.3 °F - 33.4 °F 100% 29.76 in 3.0 mi Calm Calm - 0.02 in Rain Rain
2:35 AM 33.1 °F - 33.1 °F 100% 29.76 in 2.0 mi Calm Calm - 0.02 in Rain Light Rain
2:55 AM 32.9 °F - 33.1 °F 100% 29.77 in 2.0 mi Calm Calm - 0.02 in Rain Light Rain
3:15 AM 33.3 °F - 33.4 °F 100% 29.78 in 2.5 mi Calm Calm - 0.01 in Rain Light Rain
3:35 AM 33.3 °F - 33.4 °F 100% 29.78 in 2.5 mi Calm Calm - 0.01 in   Overcast
3:56 AM 33.3 °F 30.2 °F 33.6 °F 100% 29.77 in 2.5 mi NE 3.5 mph - 0.01 in   Overcast
4:16 AM 33.8 °F - 33.8 °F 100% 29.78 in 2.5 mi Calm Calm - 0.01 in   Overcast
4:35 AM 33.8 °F - 34.0 °F 100% 29.79 in 3.0 mi Calm Calm - 0.01 in   Overcast
4:56 AM 34.0 °F - 34.2 °F 100% 29.79 in 3.0 mi Calm Calm - 0.01 in   Overcast
5:16 AM 34.0 °F - 34.2 °F 100% 29.80 in 3.0 mi Calm Calm - N/A   Overcast
5:35 AM - - - N/A% 29.81 in 3.0 mi Calm Calm - N/A   Overcast
5:56 AM 34.7 °F - 34.7 °F 100% 29.82 in 4.0 mi Calm Calm - N/A   Overcast
6:16 AM 34.7 °F - 34.7 °F 100% 29.84 in 4.0 mi Calm Calm - N/A   Overcast
6:35 AM 34.7 °F - 34.9 °F 100% 29.85 in 4.0 mi Calm Calm - N/A   Overcast
6:56 AM 34.9 °F - 35.1 °F 100% 29.86 in 3.0 mi Calm Calm - N/A   Overcast
7:16 AM 35.1 °F - 35.2 °F 100% 29.89 in 2.0 mi Calm Calm - N/A   Overcast
7:35 AM 34.9 °F - 35.1 °F 100% 29.89 in 1.5 mi Calm Calm - N/A   Overcast
7:55 AM 35.1 °F - 35.2 °F 100% 29.90 in 2.0 mi Calm Calm - N/A   Overcast
8:16 AM 35.6 °F - 35.8 °F 100% 29.90 in 1.8 mi Calm Calm - N/A   Overcast
8:35 AM 36.0 °F - 36.1 °F 100% 29.92 in 1.8 mi Calm Calm - N/A   Overcast
8:56 AM - - - N/A% 29.92 in 1.5 mi Calm Calm - N/A   Overcast
9:16 AM 37.0 °F 33.3 °F 37.2 °F 100% 29.93 in 2.5 mi WSW 4.6 mph - N/A   Overcast
9:56 AM 37.8 °F 35.3 °F 37.9 °F 100% 29.95 in 3.0 mi WSW 3.5 mph - N/A   Overcast
10:15 AM 38.3 °F 35.9 °F 38.5 °F 100% 29.96 in 4.0 mi WSW 3.5 mph - N/A   Overcast
10:35 AM 38.7 °F 34.3 °F 38.8 °F 100% 29.97 in 5.0 mi West 5.8 mph - N/A   Overcast
10:56 AM 39.2 °F 33.6 °F 39.4 °F 100% 29.99 in 5.0 mi West 8.1 mph - N/A   Overcast
11:16 AM 39.4 °F 33.8 °F 38.8 °F 98% 29.99 in 5.0 mi West 8.1 mph - N/A   Overcast
11:35 AM 39.4 °F 33.2 °F 38.1 °F 95% 29.99 in 7.0 mi West 9.2 mph - N/A   Overcast
11:56 AM 39.4 °F 34.5 °F 38.1 °F 95% 30.00 in 7.0 mi West 6.9 mph - N/A   Overcast
12:16 PM 39.4 °F 33.8 °F 38.1 °F 95% 30.00 in 7.0 mi West 8.1 mph - N/A   Overcast
12:35 PM 39.6 °F 34.7 °F 38.8 °F 97% 30.01 in 7.0 mi West 6.9 mph - N/A   Overcast
12:56 PM 40.1 °F 35.3 °F 37.8 °F 91% 30.01 in 7.0 mi West 6.9 mph - N/A   Overcast
1:16 PM 39.7 °F 33.7 °F 37.8 °F 93% 30.02 in 7.0 mi West 9.2 mph - N/A   Overcast
1:35 PM 39.4 °F 33.2 °F 37.8 °F 94% 30.03 in 5.0 mi WNW 9.2 mph - N/A   Overcast
1:56 PM 39.6 °F 34.7 °F 37.8 °F 93% 30.03 in 5.0 mi WNW 6.9 mph - N/A   Overcast
2:16 PM 39.6 °F 37.4 °F 36.7 °F 89% 30.04 in 7.0 mi WNW 3.5 mph - N/A   Overcast
2:35 PM 39.7 °F 36.5 °F 35.6 °F 85% 30.04 in 7.0 mi WNW 4.6 mph - N/A   Overcast
2:56 PM 40.1 °F 36.1 °F 35.4 °F 83% 30.05 in 7.0 mi WNW 5.8 mph - N/A   Overcast
3:16 PM 40.1 °F 38.0 °F 35.4 °F 83% 30.05 in 7.0 mi WNW 3.5 mph - N/A   Overcast
3:35 PM 39.6 °F 36.3 °F 34.9 °F 83% 30.05 in 7.0 mi NW 4.6 mph - N/A   Overcast
3:56 PM 39.6 °F - 34.9 °F 83% 30.06 in 7.0 mi Calm Calm - N/A   Overcast
4:15 PM 39.6 °F - 34.9 °F 83% 30.07 in 7.0 mi Calm Calm - N/A   Overcast
4:35 PM 39.4 °F - 34.9 °F 84% 30.08 in 7.0 mi Calm Calm - N/A   Overcast
4:55 PM 39.2 °F - 33.8 °F 81% 30.08 in 10.0 mi Calm Calm - N/A   Overcast
5:15 PM 38.8 °F - 33.6 °F 82% 30.08 in 10.0 mi Calm Calm - N/A   Overcast
5:35 PM 38.5 °F - 33.4 °F 82% 30.09 in 10.0 mi Calm Calm - N/A   Overcast
5:56 PM 36.5 °F - 34.9 °F 94% 30.10 in 10.0 mi Calm Calm - N/A   Overcast
6:16 PM 37.6 °F - 35.6 °F 93% 30.11 in 10.0 mi Calm Calm - N/A   Overcast
6:35 PM 36.5 °F - 36.1 °F 99% 30.11 in 7.0 mi Calm Calm - N/A   Overcast
6:56 PM 37.0 °F - 36.9 °F 99% 30.12 in 7.0 mi Calm Calm - N/A   Overcast
7:16 PM 37.4 °F - 36.5 °F 97% 30.13 in 10.0 mi Calm Calm - N/A   Overcast
7:35 PM 36.5 °F - 36.3 °F 99% 30.13 in 7.0 mi Calm Calm - N/A   Overcast
7:55 PM 36.0 °F - 36.1 °F 100% 30.13 in 5.0 mi Calm Calm - N/A   Overcast
8:16 PM 36.0 °F - 36.1 °F 100% 30.13 in 7.0 mi Calm Calm - N/A   Overcast
8:35 PM 34.9 °F - 35.1 °F 100% 30.12 in 5.0 mi Calm Calm - N/A   Mostly Cloudy
8:55 PM 34.2 °F - 34.5 °F 100% 30.13 in 4.0 mi Calm Calm - N/A   Scattered Clouds
9:16 PM 32.9 °F - 33.1 °F 100% 30.12 in 4.0 mi Calm Calm - N/A   Scattered Clouds
9:35 PM 32.0 °F - 32.2 °F 100% 30.12 in 2.5 mi Calm Calm - N/A   Clear
9:56 PM 31.8 °F 28.5 °F 31.8 °F 100% 30.11 in 2.5 mi East 3.5 mph - N/A   Clear
10:16 PM 31.5 °F - 31.6 °F 100% 30.12 in 2.5 mi Calm Calm - N/A   Scattered Clouds
10:35 PM 31.8 °F - 31.8 °F 100% 30.12 in 1.8 mi Calm Calm - N/A   Scattered Clouds
10:55 PM 31.1 °F 26.4 °F 31.5 °F 100% 30.12 in 3.0 mi East 4.6 mph - N/A   Clear
11:16 PM 31.1 °F 26.4 °F 31.3 °F 100% 30.12 in 4.0 mi East 4.6 mph - N/A   Clear
11:35 PM 31.3 °F 26.6 °F 31.5 °F 100% 30.12 in 3.0 mi East 4.6 mph - N/A   Clear
11:55 PM 31.1 °F 26.4 °F 31.1 °F 100% 30.12 in 3.0 mi East 4.6 mph - N/A   Clear